contact:dominique.lefevre@mio.osupytheas.fr, maurice.libes@osupytheas.fr
Project:EMSO Ligure-ouest http://www.emso-fr.org/EMSO-France
Sensor Aquadopp, line 04 Serial AQD8517 
DOI : "https://doi.org/10.17882/74513; https://doi.org/10.17882/83244" 
Title:EMSO Ligure Ouest : Data ligne ALBATROSS capteur AQUADOPP - deploiement 2021
Id,Date,Profondeur,Latitude,Longitude,X_East,Y_North,Z_Up,Amplitude_X,Amplitude_Y,Amplitude_Z,Batterie,SoundSpeed,Heading,Pitch,Roll,Pressure,Temperature,Speed,Direction
, , m, degrees North, degrees East, m.s-1, m.s-1,m.s-1, 1, 1, 1, Volt, m.s-1, degree, degree, degree, dbar, degree_C, m.s-1, degree
01,2022-05-23T21:30:00,500.0,42.79,6.0312,-0.08,-0.051,-0.002,65.0,63.0,62.0,11.8,1506.0,241.6,-0.7,0.3,451.973,13.72,0.094,237.5
01,2022-05-23T22:00:00,500.0,42.79,6.0312,-0.094,-0.033,0.007,66.0,61.0,61.0,11.8,1506.0,261.3,-0.4,0.9,451.923,13.72,0.099,250.7
01,2022-05-23T22:30:00,500.0,42.79,6.0312,-0.096,0.007,-0.003,67.0,62.0,63.0,11.8,1506.0,280.4,-0.3,0.8,451.926,13.73,0.096,274.2
01,2022-05-23T23:00:00,500.0,42.79,6.0312,-0.093,-0.05,0.026,67.0,62.0,62.0,11.8,1506.0,246.0,-0.4,0.1,451.974,13.73,0.105,241.7
01,2022-05-23T23:30:00,500.0,42.79,6.0312,-0.081,-0.039,-0.003,67.0,62.0,62.0,11.8,1506.0,251.7,-0.6,0.6,452.006,13.72,0.089,244.3
01,2022-05-24T00:00:00,500.0,42.79,6.0312,-0.088,-0.04,-0.006,66.0,62.0,61.0,11.8,1506.0,245.5,-0.1,0.5,451.941,13.72,0.096,245.6
01,2022-05-24T00:30:00,500.0,42.79,6.0312,-0.088,0.041,0.004,67.0,62.0,62.0,11.8,1506.0,297.1,-0.2,0.8,452.027,13.72,0.097,295.0
01,2022-05-24T01:00:00,500.0,42.79,6.0312,-0.08,0.042,-0.007,67.0,64.0,62.0,11.8,1506.0,299.7,-0.4,0.8,452.036,13.72,0.09,297.7
01,2022-05-24T01:30:00,500.0,42.79,6.0312,-0.071,-0.08,0.007,69.0,63.0,62.0,11.8,1506.0,227.4,0.0,0.6,452.01,13.72,0.106,221.6
01,2022-05-24T02:00:00,500.0,42.79,6.0312,-0.075,-0.063,0.011,69.0,64.0,63.0,11.8,1506.0,241.2,-0.4,0.5,452.04,13.73,0.097,230.0
01,2022-05-24T02:30:00,500.0,42.79,6.0312,-0.105,-0.001,0.0,69.0,65.0,63.0,11.8,1506.1,272.0,-0.5,0.9,452.077,13.76,0.105,269.5
01,2022-05-24T03:00:00,500.0,42.79,6.0312,-0.078,0.041,0.004,69.0,66.0,64.0,11.8,1506.1,294.7,-0.7,0.7,452.104,13.75,0.088,297.7
01,2022-05-24T03:30:00,500.0,42.79,6.0312,-0.101,0.003,0.008,69.0,65.0,64.0,11.8,1506.1,273.0,-0.4,0.7,452.063,13.74,0.101,271.7
01,2022-05-24T04:00:00,500.0,42.79,6.0312,-0.089,-0.031,0.006,69.0,63.0,63.0,11.8,1506.1,246.8,-0.1,0.4,452.073,13.74,0.094,250.8
01,2022-05-24T04:30:00,500.0,42.79,6.0312,-0.086,-0.004,0.005,68.0,63.0,65.0,11.8,1506.1,270.6,-0.1,0.6,452.052,13.74,0.086,267.3
01,2022-05-24T05:00:00,500.0,42.79,6.0312,-0.087,0.027,0.015,68.0,62.0,62.0,11.8,1506.1,294.3,-0.3,0.8,452.06,13.74,0.091,287.2
01,2022-05-24T05:30:00,500.0,42.79,6.0312,-0.098,0.0,-0.005,67.0,63.0,63.0,11.8,1506.0,275.6,-0.4,0.8,452.05,13.73,0.098,270.0
01,2022-05-24T06:00:00,500.0,42.79,6.0312,-0.07,-0.069,0.006,68.0,62.0,64.0,11.8,1506.0,231.6,-0.4,0.4,452.036,13.73,0.098,225.4
01,2022-05-24T06:30:00,500.0,42.79,6.0312,-0.085,0.03,0.011,67.0,62.0,63.0,11.8,1506.0,290.5,-0.4,1.0,452.005,13.73,0.09,289.4
01,2022-05-24T07:00:00,500.0,42.79,6.0312,-0.048,-0.09,0.004,68.0,62.0,63.0,11.8,1506.1,219.9,-0.1,0.5,451.975,13.74,0.102,208.1
01,2022-05-24T07:30:00,500.0,42.79,6.0312,-0.111,0.007,0.007,66.0,64.0,63.0,11.8,1506.1,280.7,-0.5,0.6,451.97,13.75,0.111,273.6
01,2022-05-24T08:00:00,500.0,42.79,6.0312,-0.085,-0.068,0.004,68.0,66.0,63.0,11.8,1506.2,236.0,-0.2,0.5,451.952,13.78,0.108,231.3
01,2022-05-24T08:30:00,500.0,42.79,6.0312,-0.106,-0.057,-0.007,67.0,64.0,64.0,11.8,1506.2,243.6,-0.5,0.1,451.922,13.78,0.12,241.7
01,2022-05-24T09:00:00,500.0,42.79,6.0312,-0.114,0.002,0.022,68.0,63.0,62.0,11.8,1506.2,282.5,-0.7,0.7,451.886,13.78,0.114,271.0
01,2022-05-24T09:30:00,500.0,42.79,6.0312,-0.113,0.023,0.01,67.0,62.0,63.0,11.8,1506.2,290.3,-0.6,0.8,451.858,13.78,0.115,281.5
01,2022-05-24T10:00:00,500.0,42.79,6.0312,-0.099,-0.074,-0.018,67.0,64.0,63.0,11.8,1506.2,242.0,-0.8,0.2,451.886,13.78,0.123,233.2
01,2022-05-24T10:30:00,500.0,42.79,6.0312,-0.068,-0.087,-0.004,68.0,64.0,62.0,11.8,1506.2,236.0,-0.3,0.4,451.858,13.79,0.11,218.0
01,2022-05-24T11:00:00,500.0,42.79,6.0312,-0.111,-0.017,0.012,69.0,63.0,64.0,11.8,1506.3,280.8,-0.6,0.9,451.804,13.8,0.112,261.3
01,2022-05-24T11:30:00,500.0,42.79,6.0312,-0.105,0.016,0.004,69.0,63.0,63.0,11.8,1506.3,288.7,0.0,0.8,451.865,13.8,0.106,278.7
01,2022-05-24T12:00:00,500.0,42.79,6.0312,-0.088,-0.007,-0.003,68.0,63.0,64.0,11.8,1506.3,274.3,-0.7,0.6,451.828,13.8,0.088,265.5
01,2022-05-24T12:30:00,500.0,42.79,6.0312,-0.097,-0.002,0.002,68.0,63.0,63.0,11.8,1506.3,277.3,-0.4,0.8,451.878,13.8,0.097,268.8
01,2022-05-24T13:00:00,500.0,42.79,6.0312,-0.097,-0.026,0.0,68.0,62.0,62.0,11.8,1506.3,267.7,-0.5,0.6,451.863,13.8,0.1,255.0
01,2022-05-24T13:30:00,500.0,42.79,6.0312,-0.05,-0.076,0.011,67.0,63.0,63.0,11.8,1506.3,222.1,-0.3,0.6,451.854,13.8,0.09,213.3
01,2022-05-24T14:00:00,500.0,42.79,6.0312,-0.102,0.001,0.014,69.0,65.0,62.0,11.8,1506.2,277.5,-0.3,0.7,451.878,13.79,0.102,270.6
01,2022-05-24T14:30:00,500.0,42.79,6.0312,-0.081,-0.022,0.001,66.0,62.0,63.0,11.8,1506.3,266.2,-0.3,0.6,451.89,13.8,0.083,254.8
01,2022-05-24T15:00:00,500.0,42.79,6.0312,-0.093,0.0,0.0,67.0,62.0,63.0,11.8,1506.2,282.6,-0.5,0.8,451.889,13.79,0.093,270.0
01,2022-05-24T15:30:00,500.0,42.79,6.0312,-0.081,0.0,0.01,67.0,63.0,61.0,11.8,1506.2,281.7,-0.2,0.7,451.906,13.79,0.08,270.0
01,2022-05-24T16:00:00,500.0,42.79,6.0312,-0.082,-0.036,0.005,68.0,64.0,62.0,11.8,1506.2,257.4,-0.4,0.7,451.869,13.78,0.089,246.3
01,2022-05-24T16:30:00,500.0,42.79,6.0312,-0.081,-0.005,-0.009,67.0,64.0,62.0,11.8,1506.2,275.9,0.1,0.6,451.863,13.77,0.081,266.5
01,2022-05-24T17:00:00,500.0,42.79,6.0312,-0.065,0.005,0.0,67.0,62.0,61.0,11.8,1506.2,282.3,0.3,0.6,451.932,13.77,0.065,274.4
01,2022-05-24T17:30:00,500.0,42.79,6.0312,-0.063,-0.012,-0.007,66.0,62.0,63.0,11.8,1506.2,267.2,0.1,0.6,451.887,13.77,0.064,259.2
01,2022-05-24T18:00:00,500.0,42.79,6.0312,-0.056,-0.039,0.009,67.0,63.0,63.0,11.8,1506.2,245.7,-0.2,0.6,451.869,13.77,0.068,235.1
01,2022-05-24T18:30:00,500.0,42.79,6.0312,-0.062,-0.053,0.017,67.0,63.0,63.0,11.8,1506.2,252.6,-0.2,0.6,451.868,13.78,0.081,229.5
01,2022-05-24T19:00:00,500.0,42.79,6.0312,-0.049,-0.039,-0.009,68.0,64.0,62.0,11.8,1506.2,243.3,-0.2,0.7,451.906,13.77,0.062,231.5
01,2022-05-24T19:30:00,500.0,42.79,6.0312,-0.072,-0.021,0.011,69.0,61.0,65.0,11.8,1506.2,267.5,-0.2,0.7,451.876,13.77,0.074,253.7
01,2022-05-24T20:00:00,500.0,42.79,6.0312,-0.053,-0.016,0.018,69.0,63.0,62.0,11.8,1506.1,258.5,0.0,0.6,451.875,13.76,0.055,253.2
01,2022-05-24T20:30:00,500.0,42.79,6.0312,-0.028,-0.047,0.001,68.0,64.0,62.0,11.8,1506.1,230.8,-0.1,0.7,451.85,13.76,0.054,210.8
